Dewpoint
40 40 40 40 40 40 40 41 41 42 42 42 43 44 45 46 47 47 48 49 50 51 53 54 55 56 58 59 60 60 60 59 57 53 55 55 54 55 53 50 51 48 48
39 39 38 40 39 39 40 40 41 42 42 43 44 44 45 46 47 48 49 50 51 52 53 53 55 58 57 59 59 58 58 56 53 48 52 52 53 53 51 48 48 48 48
38 37 39 38 37 39 40 41 43 44 44 44 44 45 46 47 48 49 49 50 51 51 52 54 55 56 55 57 56 56 55 55 52 50 51 52 52 51 48 46 47 48 48
36 37 38 37 39 40 41 43 43 44 44 45 46 46 47 48 48 49 50 51 51 52 53 54 54 54 55 56 55 54 53 53 51 50 49 49 49 48 48 46 47 49 47
37 37 38 40 40 41 42 43 43 43 44 44 44 46 47 50 49 50 51 51 52 53 54 54 55 56 58 56 54 53 51 50 49 49 48 47 47 47 46 47 47 47 47
37 38 40 40 41 42 42 42 42 42 42 43 43 44 45 46 45 47 52 52 53 52 50 50 51 52 52 52 52 51 51 50 48 47 47 46 47 46 46 45 46 42 41
38 39 39 40 41 41 42 42 41 41 42 42 42 43 43 44 45 47 49 49 47 47 47 48 48 49 50 49 50 50 50 50 49 47 46 46 44 46 45 43 41 40 41
39 38 39 40 40 41 41 41 41 41 41 41 41 42 42 44 44 44 45 45 45 45 45 46 46 46 46 46 46 45 45 46 46 46 46 45 44 43 44 42 42 40 41
37 38 38 39 40 40 40 40 41 41 41 41 42 42 41 42 43 44 44 44 44 44 44 45 44 44 43 44 45 44 44 45 45 45 44 43 42 43 43 42 40 40 38
37 38 38 39 39 39 40 40 41 41 41 41 41 42 42 42 42 42 44 44 44 44 44 43 43 44 43 43 43 43 42 41 41 41 41 41 42 44 45 45 42 41 41
38 38 38 39 39 39 40 40 40 40 40 40 40 40 40 40 41 41 41 42 43 41 41 41 40 40 39 41 44 45 42 41 42 41 41 43 43 44 46 46 46 43 43
38 38 38 38 39 40 39 40 40 39 38 38 38 39 39 38 39 38 39 40 40 38 39 41 42 40 40 40 40 38 38 40 42 45 44 43 42 41 42 44 42 42 41
38 38 38 38 38 38 38 38 38 38 33 31 32 35 36 37 38 38 38 37 39 41 43 41 40 40 41 42 42 42 42 43 43 43 43 43 43 43 41 40 40 40 39
37 37 37 37 37 37 37 38 37 36 32 32 33 35 33 33 34 37 38 39 38 39 41 40 41 41 41 42 41 42 42 42 42 41 41 42 43 43 41 41 39 39 37
37 37 37 37 37 35 35 36 36 37 35 35 35 36 35 32 33 34 34 33 35 37 38 38 38 38 39 39 40 40 41 41 41 41 41 41 41 41 41 40 38 38 38
35 35 36 36 36 36 35 36 34 34 34 34 35 35 33 35 34 34 34 34 35 36 35 35 36 37 37 37 38 39 40 42 42 42 42 41 40 39 40 38 38 37 36
36 36 36 35 35 34 32 31 30 31 35 33 33 33 33 33 33 33 34 33 33 34 33 33 33 35 36 38 39 40 40 41 42 42 40 39 39 38 38 37 37 37 37
38 37 36 34 33 32 32 30 30 29 28 28 31 31 32 32 32 33 33 32 31 33 33 32 32 33 34 35 38 39 40 41 40 40 38 38 38 37 37 37 37 37 37
38 35 34 32 30 31 30 29 29 29 29 28 28 29 29 31 32 32 33 31 31 32 32 32 33 33 33 33 35 37 38 39 40 40 38 38 38 37 37 37 37 35 36
37 35 32 29 29 29 29 29 29 29 28 28 28 28 28 28 28 29 30 31 31 31 32 32 32 33 33 34 35 35 36 37 38 39 39 38 37 37 36 36 36 36 37
34 32 30 28 28 29 30 30 29 29 29 28 28 28 29 26 26 27 28 29 30 31 32 32 31 31 33 34 35 35 36 37 37 38 38 37 36 36 36 36 36 37 37
34 30 29 28 29 29 29 30 29 28 28 27 26 26 27 24 25 26 26 28 29 31 31 31 31 31 33 34 34 35 34 35 36 37 37 37 36 37 37 37 37 37 36
35 34 29 29 29 29 29 29 29 29 29 29 28 26 25 24 24 24 25 26 28 29 30 31 31 32 33 35 35 35 34 35 36 37 37 37 37 37 37 37 37 37 36
34 33 28 28 29 29 29 29 29 29 28 27 27 26 25 25 24 25 25 26 28 29 30 31 31 32 33 34 35 35 35 35 37 38 38 38 37 37 38 37 36 37 37
31 29 29 29 29 29 30 30 29 29 28 28 27 25 24 24 24 25 26 27 28 29 29 31 31 32 32 33 34 35 34 33 36 35 38 36 36 37 37 36 36 37 37
30 29 29 29 30 30 29 29 28 28 27 27 26 25 24 24 24 26 26 27 28 29 29 30 31 32 32 34 34 33 33 33 35 34 38 37 37 36 36 36 37 36 37
Lifted_Index
10 10 10 10 10 11 12 13 13 14 14 14 13 12 11 10 9 9 9 8 7 7 6 5 3 2 0 -0 -1 -2 -2 -3 -3 -2 -2 -1 -1 -1 -0 0 1 3 4
10 10 10 10 11 11 12 12 13 13 13 13 12 10 9 9 9 9 9 8 8 7 6 5 4 2 1 -0 -1 -2 -2 -2 -2 -2 -2 -1 -1 -0 0 1 2 4 6
10 10 10 11 11 11 11 11 12 12 11 11 9 8 7 7 7 8 8 8 8 7 7 6 4 3 2 1 -0 -1 -2 -2 -2 -2 -1 -0 0 1 1 2 3 5 7
10 10 11 11 11 11 10 10 10 10 10 8 7 6 5 5 6 6 7 7 8 7 6 5 4 3 2 1 -0 -1 -1 -1 -1 -1 -1 0 1 2 2 2 4 6 8
12 12 12 11 11 10 10 9 9 9 8 7 6 5 4 5 5 6 6 7 7 7 6 4 3 2 1 0 -0 -1 -1 -1 -1 -1 -0 1 1 2 3 3 5 7 8
13 12 12 11 10 10 9 9 8 8 7 7 5 4 4 4 5 5 6 7 7 6 5 3 2 1 0 -0 -1 -1 -1 -1 -0 -0 0 1 2 3 4 6 7 8 8
12 12 11 10 10 10 10 9 8 8 7 6 5 4 4 3 4 5 6 6 6 5 4 2 1 0 -0 -0 -0 -0 -0 1 2 2 2 3 5 6 8 9 10 10 10
11 11 11 10 10 10 9 9 9 8 8 7 6 5 4 3 4 4 5 5 5 4 3 2 1 1 1 1 1 1 1 3 5 6 6 7 9 10 11 11 11 12 12
11 11 11 11 10 10 9 9 9 9 8 8 7 6 5 5 5 5 5 5 4 4 4 3 3 2 3 3 3 3 4 6 9 10 10 11 11 12 12 12 12 12 12
11 11 12 11 11 11 10 10 10 9 9 9 9 8 8 7 7 6 6 6 5 4 5 5 6 6 6 6 6 6 7 9 11 12 12 12 11 12 12 12 12 12 12
12 12 12 12 12 12 11 11 11 10 10 10 10 10 10 10 9 9 9 8 7 7 7 8 9 9 9 9 9 9 10 11 11 12 12 12 12 12 12 12 12 12 12
13 13 12 13 13 13 12 12 12 12 11 11 11 11 11 11 11 11 11 10 10 9 9 10 10 10 10 10 10 11 11 11 11 11 12 12 12 12 12 12 12 12 12
13 13 13 13 14 14 13 13 13 13 12 12 12 11 12 12 12 12 12 11 11 11 10 11 11 10 10 10 11 11 11 11 12 12 12 12 12 13 13 13 13 12 11
14 14 14 14 14 14 14 14 14 14 14 13 13 13 13 13 12 12 12 12 12 12 11 11 11 11 11 11 11 11 12 12 12 12 12 13 13 13 13 13 13 11 10
16 16 16 15 15 15 15 15 15 15 15 14 14 14 14 14 14 13 13 13 13 12 12 12 12 12 12 12 12 12 13 13 13 13 13 13 13 13 13 12 11 10 9
17 17 17 16 16 16 16 16 16 16 16 16 16 16 16 16 15 14 14 14 14 13 14 14 13 13 13 13 13 13 13 14 13 13 13 13 12 12 12 11 10 10 9
17 17 17 17 16 16 16 16 16 16 16 16 16 16 17 16 16 16 16 15 15 15 15 15 15 14 14 13 13 13 13 13 13 13 13 12 12 11 11 10 10 9 9
17 17 17 17 16 16 16 16 16 15 16 16 16 17 17 17 18 18 17 17 17 16 16 16 15 15 14 14 13 13 13 13 13 13 12 12 12 11 10 10 9 9 9
17 17 17 17 16 16 16 16 16 16 16 17 17 18 18 19 19 19 19 18 18 17 17 16 16 15 14 14 14 14 13 13 13 12 12 12 11 11 10 10 9 9 9
16 16 17 16 16 15 16 16 17 17 18 18 19 19 20 19 19 19 19 18 18 17 16 16 15 15 14 14 14 14 13 13 12 12 12 11 11 11 11 10 9 9 8
15 16 16 15 15 15 15 16 17 18 18 19 19 20 20 20 19 19 18 18 17 17 16 15 15 14 14 14 14 13 13 12 12 12 11 11 11 11 11 11 10 9 9
15 15 15 15 15 15 16 17 17 18 19 19 20 20 20 20 19 19 18 17 17 17 16 16 15 14 14 13 13 12 12 12 11 11 11 11 11 11 12 12 11 10 9
14 14 14 14 14 15 16 17 17 18 19 19 20 20 20 20 19 18 18 17 17 16 16 16 15 14 14 13 12 12 12 12 11 11 11 11 11 12 13 13 11 10 9
14 14 14 14 15 15 16 16 17 18 19 19 20 20 20 20 19 18 17 17 16 16 16 16 15 14 13 13 12 12 12 12 11 11 11 11 12 13 14 13 12 10 9
15 15 15 14 15 15 16 16 17 18 19 20 20 20 20 20 19 18 17 16 16 16 16 16 15 14 13 13 12 12 12 11 11 11 12 12 13 14 14 14 12 10 9
15 15 15 14 15 15 16 16 17 18 19 20 20 20 20 20 20 18 17 16 16 16 16 16 15 14 13 13 12 12 11 11 11 12 13 13 14 14 14 14 12 10 9